FW9285 Weather Reports


Display with metric or nautical units.
time (UTC)temp
F
wind
direction
speed
MPH
gust
MPH
rain 1hr
in
rain 24hr
in
rain mn
in
humidity
%
barometer
mb
20260509012504 95 333 1.0 10.0 0.00 0.00 0.00 16 1007.0
20260509011500 96 324 2.0 7.0 0.00 0.00 0.00 16 1007.0
20260509005458 98 341 2.0 8.0 0.00 0.00 0.00 16 1007.3
20260509004459 98 272 2.0 7.0 0.00 0.00 0.00 15 1007.2
20260509003457 99 345 2.0 9.0 0.00 0.00 0.00 16 1007.4
20260509002457 98 346 4.0 11.0 0.00 0.00 0.00 16 1007.4
20260509000458 99 351 3.0 8.0 0.00 0.00 0.00 15 1007.5
20260508235457 98 350 8.0 14.0 0.00 0.00 0.00 16 1007.4
20260508234458 100 306 2.0 7.0 0.00 0.00 0.00 16 1007.3
20260508233457 99 341 3.0 7.0 0.00 0.00 0.00 15 1007.4
20260508232458 99 332 2.0 14.0 0.00 0.00 0.00 16 1007.8
20260508231458 99 339 4.0 5.0 0.00 0.00 0.00 16 1007.4
20260508230457 98 332 4.0 11.0 0.00 0.00 0.00 16 1007.7
20260508225456 99 269 2.0 11.0 0.00 0.00 0.00 16 1007.7
20260508224457 99 284 4.0 10.0 0.00 0.00 0.00 16 1007.8
20260508223456 99 273 4.0 11.0 0.00 0.00 0.00 15 1008.0
20260508222458 99 337 4.0 15.0 0.00 0.00 0.00 16 1008.2
20260508220454 97 322 3.0 11.0 0.00 0.00 0.00 17 1008.7
20260508215452 98 328 6.0 12.0 0.00 0.00 0.00 17 1008.7
20260508214453 99 308 4.0 11.0 0.00 0.00 0.00 16 1008.8
20260508212451 97 324 4.0 9.0 0.00 0.00 0.00 19 1009.3
20260508211451 96 292 2.0 7.0 0.00 0.00 0.00 18 1009.5
20260508205451 97 241 6.0 15.0 0.00 0.00 0.00 18 1009.7
20260508204452 97 258 8.0 13.0 0.00 0.00 0.00 17 1009.7
20260508203443 96 337 5.0 10.0 0.00 0.00 0.00 18 1010.1
20260508202441 97 194 0.0 9.0 0.00 0.00 0.00 18 1010.1
20260508201441 96 238 2.0 8.0 0.00 0.00 0.00 18 1010.3
20260508195441 94 276 5.0 11.0 0.00 0.00 0.00 19 1010.7
20260508194440 94 226 4.0 8.0 0.00 0.00 0.00 19 1010.7
20260508192441 92 344 3.0 10.0 0.00 0.00 0.00 20 1011.0
20260508190439 92 249 3.0 6.0 0.00 0.00 0.00 20 1011.6
20260508185431 91 235 3.0 9.0 0.00 0.00 0.00 20 1011.9
20260508184432 90 258 3.0 7.0 0.00 0.00 0.00 21 1011.7
20260508183430 90 265 3.0 6.0 0.00 0.00 0.00 21 1012.1
20260508182434 89 134 2.0 7.0 0.00 0.00 0.00 21 1012.1
20260508180431 89 274 3.0 7.0 0.00 0.00 0.00 21 1012.3
20260508175430 88 0 0.0 5.0 0.00 0.00 0.00 21 1012.4
20260508174431 88 229 3.0 7.0 0.00 0.00 0.00 22 1012.4
20260508173432 89 180 1.0 7.0 0.00 0.00 0.00 22 1012.3
20260508172430 88 143 3.0 6.0 0.00 0.00 0.00 22 1012.4
20260508171431 86 165 2.0 6.0 0.00 0.00 0.00 23 1012.6
20260508170431 85 353 2.0 6.0 0.00 0.00 0.00 24 1012.6
20260508164432 86 252 2.0 6.0 0.00 0.00 0.00 24 1012.6
20260508163433 85 282 2.0 6.0 0.00 0.00 0.00 25 1012.6
20260508162430 85 286 2.0 4.0 0.00 0.00 0.00 25 1012.5
20260508161432 84 263 2.0 8.0 0.00 0.00 0.00 26 1012.9
20260508155429 83 219 1.0 4.0 0.00 0.00 0.00 27 1012.9
20260508154431 82 222 2.0 4.0 0.00 0.00 0.00 27 1013.0
20260508151432 80 173 1.0 6.0 0.00 0.00 0.00 28 1012.9
20260508150430 78 237 1.0 4.0 0.00 0.00 0.00 28 1012.9
20260508145430 76 235 1.0 4.0 0.00 0.00 0.00 30 1013.1
20260508144435 75 232 3.0 4.0 0.00 0.00 0.00 30 1012.9
20260508143431 74 181 2.0 4.0 0.00 0.00 0.00 31 1012.8
20260508141430 72 218 1.0 3.0 0.00 0.00 0.00 33 1012.6
20260508140430 71 201 1.0 4.0 0.00 0.00 0.00 33 1012.7
20260508135432 70 231 1.0 3.0 0.00 0.00 0.00 34 1012.7
20260508134432 69 203 2.0 3.0 0.00 0.00 0.00 34 1012.6
20260508133432 68 261 1.0 3.0 0.00 0.00 0.00 35 1012.5
20260508132430 68 223 2.0 3.0 0.00 0.00 0.00 35 1012.3
20260508131431 67 225 1.0 2.0 0.00 0.00 0.00 37 1012.4
20260508130430 66 240 1.0 2.0 0.00 0.00 0.00 36 1012.2
20260508124432 63 253 0.0 3.0 0.00 0.00 0.00 41 1012.0
20260508123431 62 285 2.0 2.0 0.00 0.00 0.00 42 1011.9
20260508122432 63 263 2.0 2.0 0.00 0.00 0.00 40 1011.6
20260508121431 63 262 2.0 2.0 0.00 0.00 0.00 41 1011.3
20260508120431 64 276 1.0 2.0 0.00 0.00 0.00 42 1011.6
20260508115430 64 272 2.0 3.0 0.00 0.00 0.00 39 1011.7
20260508114433 66 265 2.0 2.0 0.00 0.00 0.00 37 1011.6
20260508113431 66 225 2.0 2.0 0.00 0.00 0.00 36 1011.3
20260508112430 67 215 0.0 3.0 0.00 0.00 0.00 36 1011.2
20260508111431 66 214 0.0 2.0 0.00 0.00 0.00 36 1011.1
20260508110430 66 241 1.0 2.0 0.00 0.00 0.00 36 1011.1
20260508105430 67 226 0.0 2.0 0.00 0.00 0.00 36 1011.3
20260508104433 67 189 1.0 3.0 0.00 0.00 0.00 35 1010.9
20260508103432 68 194 2.0 4.0 0.00 0.00 0.00 35 1011.1
20260508102431 69 221 1.0 4.0 0.00 0.00 0.00 35 1011.2
20260508100432 69 186 3.0 3.0 0.00 0.00 0.00 34 1011.1
20260508095430 70 185 2.0 3.0 0.00 0.00 0.00 34 1011.2
20260508094432 69 199 1.0 2.0 0.00 0.00 0.00 34 1011.0
20260508093430 69 232 0.0 3.0 0.00 0.00 0.00 34 1011.0
20260508092431 69 207 1.0 2.0 0.00 0.00 0.00 34 1011.0
20260508091430 70 189 1.0 2.0 0.00 0.00 0.00 33 1010.9
20260508090432 69 207 0.0 2.0 0.00 0.00 0.00 33 1011.0
20260508085431 70 213 1.0 2.0 0.00 0.00 0.00 33 1011.1
20260508083430 70 205 0.0 3.0 0.00 0.00 0.00 32 1010.8
20260508082430 71 188 1.0 4.0 0.00 0.00 0.00 32 1011.1
20260508081433 71 171 2.0 3.0 0.00 0.00 0.00 31 1011.5
20260508080431 71 209 1.0 4.0 0.00 0.00 0.00 32 1011.2
20260508075431 71 213 2.0 2.0 0.00 0.00 0.00 33 1011.3
20260508074431 71 198 2.0 3.0 0.00 0.00 0.00 33 1011.5
20260508073431 71 179 3.0 3.0 0.00 0.00 0.00 33 1011.7
20260508072430 71 191 1.0 2.0 0.00 0.00 0.00 33 1011.7
20260508071431 71 212 2.0 4.0 0.00 0.00 0.00 32 1011.5
20260508070431 71 231 2.0 4.0 0.00 0.00 0.00 32 1011.5
20260508065430 71 222 2.0 3.0 0.00 0.00 0.00 32 1011.7
20260508063431 71 258 1.0 3.0 0.00 0.00 0.00 30 1011.6
20260508062431 71 259 0.0 3.0 0.00 0.00 0.00 28 1011.2
20260508061430 72 185 2.0 3.0 0.00 0.00 0.00 26 1011.6
20260508060431 73 211 0.0 4.0 0.00 0.00 0.00 24 1011.5
20260508055431 73 201 2.0 5.0 0.00 0.00 0.00 22 1011.2
20260508054431 72 175 1.0 4.0 0.00 0.00 0.00 23 1011.3
20260508053431 73 175 1.0 2.0 0.00 0.00 0.00 22 1011.3
20260508052432 74 232 2.0 2.0 0.00 0.00 0.00 22 1010.8
20260508051430 74 198 0.0 4.0 0.00 0.00 0.00 21 1010.8
20260508050432 75 175 2.0 3.0 0.00 0.00 0.00 21 1010.6
20260508045432 76 206 2.0 4.0 0.00 0.00 0.00 19 1010.8
20260508044430 78 234 4.0 4.0 0.00 0.00 0.00 17 1010.5
20260508042430 78 287 1.0 2.0 0.00 0.00 0.00 18 1010.3
20260508041430 79 300 2.0 2.0 0.00 0.00 0.00 20 1010.2
20260508040432 80 294 1.0 2.0 0.00 0.00 0.00 19 1010.1
20260508035432 82 312 2.0 3.0 0.00 0.00 0.00 17 1009.7
20260508034432 82 308 2.0 3.0 0.00 0.00 0.00 17 1009.6
20260508033432 82 309 2.0 3.0 0.00 0.00 0.00 17 1009.7
20260508032433 83 264 3.0 4.0 0.00 0.00 0.00 16 1009.3
20260508031432 83 301 2.0 4.0 0.00 0.00 0.00 17 1009.3
20260508030432 84 265 3.0 6.0 0.00 0.00 0.00 15 1009.2
20260508025434 85 261 5.0 6.0 0.00 0.00 0.00 15 1009.3
20260508024431 86 253 5.0 6.0 0.00 0.00 0.00 15 1009.0
20260508023433 85 260 3.0 5.0 0.00 0.00 0.00 15 1009.0
20260508022433 86 263 1.0 5.0 0.00 0.00 0.00 15 1008.7
20260508021431 88 265 2.0 8.0 0.00 0.00 0.00 14 1008.8
20260508015432 89 252 2.0 7.0 0.00 0.00 0.00 15 1008.4
20260508014432 89 225 0.0 7.0 0.00 0.00 0.00 15 1008.2
20260508013444 90 245 1.0 7.0 0.00 0.00 0.00 14 1008.2